Time,TemperatureF,DewpointF,PressureIn,WindDirection,WindDirectionDegrees,WindSpeedMPH,WindSpeedGustMPH,Humidity,HourlyPrecipIn,Conditions,Clouds,dailyrainin,SolarRadiationWatts/m^2,SoftwareType,DateUTC
2013-05-10 00:00:00,71.1,-99.9,19.99,WNW,287,4.0,10.0,255,0.00,,,0.00,0,Wunderground v.1.15,2013-05-10 04:00:00,
2013-05-10 00:05:00,71.1,-99.9,19.98,West,272,0.0,10.0,255,0.00,,,0.00,0,Wunderground v.1.15,2013-05-10 04:05:00,
2013-05-10 00:10:00,71.1,-99.9,19.99,West,260,4.0,10.0,255,0.00,,,0.00,0,Wunderground v.1.15,2013-05-10 04:10:00,
2013-05-10 00:15:00,71.0,-99.9,19.99,West,281,4.0,10.0,255,0.00,,,0.00,0,Wunderground v.1.15,2013-05-10 04:15:00,
2013-05-10 00:26:00,70.9,-99.9,19.99,West,261,3.0,10.0,255,0.00,,,0.00,0,Wunderground v.1.15,2013-05-10 04:26:00,
2013-05-10 00:31:00,70.9,-99.9,19.98,West,263,6.0,10.0,255,0.00,,,0.00,0,Wunderground v.1.15,2013-05-10 04:31:00,
2013-05-10 00:41:00,70.9,-99.9,19.99,WNW,296,4.0,10.0,255,0.00,,,0.00,0,Wunderground v.1.15,2013-05-10 04:41:00,
2013-05-10 00:51:00,70.8,-99.9,19.98,West,259,4.0,10.0,255,0.00,,,0.00,0,Wunderground v.1.15,2013-05-10 04:51:00,
2013-05-10 01:01:00,70.8,-99.9,19.98,West,261,4.0,10.0,255,0.00,,,0.00,0,Wunderground v.1.15,2013-05-10 05:01:00,
2013-05-10 01:05:00,70.7,-99.9,19.99,West,269,3.0,10.0,255,0.00,,,0.00,0,Wunderground v.1.15,2013-05-10 05:05:00,
2013-05-10 01:11:00,70.6,-99.9,19.98,West,270,3.0,10.0,255,0.00,,,0.00,0,Wunderground v.1.15,2013-05-10 05:11:00,
2013-05-10 01:20:00,70.6,-99.9,19.99,WSW,240,5.0,10.0,255,0.00,,,0.00,0,Wunderground v.1.15,2013-05-10 05:20:00,
2013-05-10 01:30:00,70.5,-99.9,19.98,WSW,258,3.0,10.0,255,0.00,,,0.00,0,Wunderground v.1.15,2013-05-10 05:30:00,
2013-05-10 01:35:00,70.4,-99.9,19.99,WSW,258,4.0,10.0,255,0.00,,,0.00,0,Wunderground v.1.15,2013-05-10 05:35:00,
2013-05-10 01:45:00,70.4,-99.9,19.99,WSW,247,1.0,10.0,255,0.00,,,0.00,0,Wunderground v.1.15,2013-05-10 05:45:00,
2013-05-10 02:00:00,70.1,-99.9,19.98,WNW,289,2.0,9.0,255,0.00,,,0.00,0,Wunderground v.1.15,2013-05-10 06:00:00,
2013-05-10 02:05:00,69.9,-99.9,19.98,WNW,289,0.0,9.0,255,0.00,,,0.00,0,Wunderground v.1.15,2013-05-10 06:05:00,
2013-05-10 02:15:00,69.8,-99.9,19.98,WNW,286,4.0,9.0,255,0.00,,,0.00,0,Wunderground v.1.15,2013-05-10 06:15:00,
2013-05-10 02:30:00,69.7,-99.9,19.99,WNW,284,0.0,9.0,255,0.00,,,0.00,0,Wunderground v.1.15,2013-05-10 06:30:00,
2013-05-10 02:40:00,69.6,-99.9,19.99,WNW,284,0.0,9.0,255,0.00,,,0.00,0,Wunderground v.1.15,2013-05-10 06:40:00,
2013-05-10 02:50:00,69.6,-99.9,19.98,WNW,285,4.0,9.0,255,0.00,,,0.00,0,Wunderground v.1.15,2013-05-10 06:50:00,
2013-05-10 03:00:00,69.2,-99.9,19.99,WNW,285,1.0,6.0,255,0.00,,,0.00,0,Wunderground v.1.15,2013-05-10 07:00:00,
2013-05-10 03:05:00,69.0,-99.9,19.99,WNW,285,0.0,6.0,255,0.00,,,0.00,0,Wunderground v.1.15,2013-05-10 07:05:00,
2013-05-10 03:15:00,68.8,-99.9,19.99,WNW,285,0.0,6.0,255,0.00,,,0.00,0,Wunderground v.1.15,2013-05-10 07:15:00,
2013-05-10 03:26:00,68.3,-99.9,19.98,WNW,285,0.0,6.0,255,0.00,,,0.00,0,Wunderground v.1.15,2013-05-10 07:26:00,
2013-05-10 03:31:00,68.0,-99.9,19.99,WNW,285,0.0,6.0,255,0.00,,,0.00,0,Wunderground v.1.15,2013-05-10 07:31:00,
2013-05-10 03:41:00,67.9,-99.9,19.99,WNW,285,1.0,6.0,255,0.00,,,0.00,0,Wunderground v.1.15,2013-05-10 07:41:00,
2013-05-10 03:51:00,68.1,-99.9,19.98,West,264,1.0,6.0,255,0.00,,,0.00,0,Wunderground v.1.15,2013-05-10 07:51:00,
2013-05-10 04:00:00,67.9,-99.9,19.99,West,264,0.0,7.0,255,0.00,,,0.00,0,Wunderground v.1.15,2013-05-10 08:00:00,
2013-05-10 04:06:00,67.8,-99.9,19.99,West,264,0.0,7.0,255,0.00,,,0.00,0,Wunderground v.1.15,2013-05-10 08:06:00,
2013-05-10 04:15:00,67.8,-99.9,19.98,West,264,2.0,7.0,255,0.00,,,0.00,0,Wunderground v.1.15,2013-05-10 08:15:00,
2013-05-10 04:26:00,67.6,-99.9,19.98,West,264,0.0,7.0,255,0.00,,,0.00,0,Wunderground v.1.15,2013-05-10 08:26:00,
2013-05-10 04:35:00,67.5,-99.9,19.98,West,264,0.0,7.0,255,0.00,,,0.00,0,Wunderground v.1.15,2013-05-10 08:35:00,
2013-05-10 04:45:00,67.4,-99.9,19.98,West,264,0.0,7.0,255,0.00,,,0.00,0,Wunderground v.1.15,2013-05-10 08:45:00,
2013-05-10 04:50:00,67.3,-99.9,19.99,West,264,0.0,7.0,255,0.00,,,0.00,0,Wunderground v.1.15,2013-05-10 08:50:00,
2013-05-10 05:00:00,67.3,-99.9,19.98,West,264,3.0,4.0,255,0.00,,,0.00,0,Wunderground v.1.15,2013-05-10 09:00:00,
2013-05-10 05:10:00,67.3,-99.9,19.98,West,268,1.0,4.0,255,0.00,,,0.00,0,Wunderground v.1.15,2013-05-10 09:10:00,
2013-05-10 05:20:00,67.1,-99.9,19.98,West,268,0.0,4.0,255,0.00,,,0.00,0,Wunderground v.1.15,2013-05-10 09:20:00,
2013-05-10 05:25:00,67.1,-99.9,19.99,West,268,0.0,4.0,255,0.00,,,0.00,0,Wunderground v.1.15,2013-05-10 09:25:00,
2013-05-10 05:35:00,66.9,-99.9,19.99,West,267,0.0,4.0,255,0.00,,,0.00,0,Wunderground v.1.15,2013-05-10 09:35:00,
2013-05-10 05:45:00,66.5,-99.9,19.99,West,268,0.0,4.0,255,0.00,,,0.00,0,Wunderground v.1.15,2013-05-10 09:45:00,
2013-05-10 06:00:00,66.3,-99.9,19.98,West,268,0.0,6.0,255,0.00,,,0.00,0,Wunderground v.1.15,2013-05-10 10:00:00,
2013-05-10 06:10:00,66.2,-99.9,19.98,West,268,0.0,6.0,255,0.00,,,0.00,0,Wunderground v.1.15,2013-05-10 10:10:00,
2013-05-10 06:20:00,66.3,-99.9,19.99,West,267,0.0,6.0,255,0.00,,,0.00,0,Wunderground v.1.15,2013-05-10 10:20:00,
2013-05-10 06:26:00,66.4,-99.9,19.98,West,268,0.0,6.0,255,0.00,,,0.00,0,Wunderground v.1.15,2013-05-10 10:26:00,
2013-05-10 06:36:00,66.2,-99.9,19.98,West,268,0.0,6.0,255,0.00,,,0.00,0,Wunderground v.1.15,2013-05-10 10:36:00,
2013-05-10 06:46:00,66.4,-99.9,19.99,West,268,0.0,6.0,255,0.00,,,0.00,0,Wunderground v.1.15,2013-05-10 10:46:00,
2013-05-10 07:01:00,66.7,-99.9,19.99,West,268,0.0,1.0,255,0.00,,,0.00,0,Wunderground v.1.15,2013-05-10 11:01:00,
2013-05-10 07:10:00,67.5,-99.9,19.99,West,267,0.0,1.0,255,0.00,,,0.00,0,Wunderground v.1.15,2013-05-10 11:10:00,
2013-05-10 07:21:00,68.0,-99.9,19.98,West,267,0.0,1.0,255,0.00,,,0.00,0,Wunderground v.1.15,2013-05-10 11:21:00,
2013-05-10 07:30:00,69.2,-99.9,19.99,West,267,2.0,2.0,255,0.00,,,0.00,0,Wunderground v.1.15,2013-05-10 11:30:00,
2013-05-10 07:40:00,69.9,-99.9,19.99,West,268,0.0,1.0,255,0.00,,,0.00,0,Wunderground v.1.15,2013-05-10 11:40:00,
2013-05-10 07:50:00,70.4,-99.9,19.99,West,267,1.0,1.0,255,0.00,,,0.00,0,Wunderground v.1.15,2013-05-10 11:50:00,
2013-05-10 08:00:00,70.9,-99.9,19.98,West,267,3.0,3.0,255,0.00,,,0.00,0,Wunderground v.1.15,2013-05-10 12:00:00,
2013-05-10 08:10:00,71.4,-99.9,19.98,West,267,2.0,3.0,255,0.00,,,0.00,0,Wunderground v.1.15,2013-05-10 12:10:00,
2013-05-10 08:15:00,71.7,-99.9,19.98,West,267,3.0,3.0,255,0.00,,,0.00,0,Wunderground v.1.15,2013-05-10 12:15:00,
2013-05-10 08:25:00,72.2,-99.9,19.99,West,269,1.0,3.0,255,0.00,,,0.00,0,Wunderground v.1.15,2013-05-10 12:25:00,
2013-05-10 08:35:00,72.2,-99.9,19.99,WSW,249,2.0,4.0,255,0.00,,,0.00,0,Wunderground v.1.15,2013-05-10 12:35:00,
2013-05-10 08:45:00,74.0,-99.9,19.99,WSW,249,0.0,3.0,255,0.00,,,0.00,0,Wunderground v.1.15,2013-05-10 12:45:00,
2013-05-10 09:00:00,74.6,-99.9,19.98,WNW,296,4.0,7.0,255,0.00,,,0.00,0,Wunderground v.1.15,2013-05-10 13:00:00,
2013-05-10 09:10:00,75.4,-99.9,19.99,WNW,296,3.0,7.0,255,0.00,,,0.00,0,Wunderground v.1.15,2013-05-10 13:10:00,
2013-05-10 09:20:00,77.3,-99.9,19.99,WNW,296,0.0,7.0,255,0.00,,,0.00,0,Wunderground v.1.15,2013-05-10 13:20:00,
2013-05-10 09:26:00,76.7,-99.9,19.98,WNW,288,2.0,7.0,255,0.00,,,0.00,0,Wunderground v.1.15,2013-05-10 13:26:00,
2013-05-10 09:36:00,77.6,-99.9,19.99,WNW,288,1.0,7.0,255,0.00,,,0.00,0,Wunderground v.1.15,2013-05-10 13:36:00,
2013-05-10 09:46:00,78.4,-99.9,19.99,WNW,288,2.0,7.0,255,0.00,,,0.00,0,Wunderground v.1.15,2013-05-10 13:46:00,
2013-05-10 10:00:00,79.2,-99.9,19.98,WNW,287,0.0,5.0,255,0.00,,,0.00,0,Wunderground v.1.15,2013-05-10 14:00:00,
2013-05-10 10:11:00,78.4,-99.9,19.99,WNW,284,1.0,5.0,255,0.00,,,0.00,0,Wunderground v.1.15,2013-05-10 14:11:00,
2013-05-10 10:20:00,80.1,-99.9,19.99,West,265,3.0,5.0,255,0.00,,,0.00,0,Wunderground v.1.15,2013-05-10 14:20:00,
2013-05-10 10:30:00,81.1,-99.9,19.99,West,264,0.0,5.0,255,0.00,,,0.00,0,Wunderground v.1.15,2013-05-10 14:30:00,
2013-05-10 10:40:00,81.1,-99.9,19.99,West,266,1.0,5.0,255,0.00,,,0.00,0,Wunderground v.1.15,2013-05-10 14:40:00,
2013-05-10 10:50:00,81.1,-99.9,19.98,West,263,3.0,5.0,255,0.00,,,0.00,0,Wunderground v.1.15,2013-05-10 14:50:00,
2013-05-10 11:00:00,79.1,-99.9,19.99,SW,214,6.0,6.0,255,0.00,,,0.00,0,Wunderground v.1.15,2013-05-10 15:00:00,
2013-05-10 11:05:00,78.4,-99.9,19.99,SSW,211,5.0,6.0,255,0.00,,,0.00,0,Wunderground v.1.15,2013-05-10 15:05:00,
2013-05-10 11:15:00,77.4,-99.9,19.98,South,170,7.0,7.0,255,0.00,,,0.00,0,Wunderground v.1.15,2013-05-10 15:15:00,
2013-05-10 11:25:00,77.0,-99.9,19.98,South,173,7.0,8.0,255,0.00,,,0.00,0,Wunderground v.1.15,2013-05-10 15:25:00,
2013-05-10 11:30:00,78.2,-99.9,19.98,SW,222,2.0,6.0,255,0.00,,,0.00,0,Wunderground v.1.15,2013-05-10 15:30:00,
2013-05-10 11:40:00,78.4,-99.9,19.98,SW,217,3.0,6.0,255,0.00,,,0.00,0,Wunderground v.1.15,2013-05-10 15:40:00,
2013-05-10 11:50:00,78.0,-99.9,19.99,South,187,9.0,9.0,255,0.00,,,0.00,0,Wunderground v.1.15,2013-05-10 15:50:00,
2013-05-10 12:00:00,76.9,-99.9,19.98,SSW,196,8.0,11.0,255,0.00,,,0.00,0,Wunderground v.1.15,2013-05-10 16:00:00,
2013-05-10 12:05:00,76.8,-99.9,19.99,SSW,194,12.0,12.0,255,0.00,,,0.00,0,Wunderground v.1.15,2013-05-10 16:05:00,
2013-05-10 12:15:00,77.6,-99.9,19.99,SSW,197,10.0,11.0,255,0.00,,,0.00,0,Wunderground v.1.15,2013-05-10 16:15:00,
2013-05-10 12:21:00,77.8,-99.9,19.99,SW,231,6.0,11.0,255,0.00,,,0.00,0,Wunderground v.1.15,2013-05-10 16:21:00,
2013-05-10 12:31:00,76.7,-99.9,19.98,WSW,237,6.0,11.0,255,0.00,,,0.00,0,Wunderground v.1.15,2013-05-10 16:31:00,
2013-05-10 12:41:00,76.2,-99.9,19.99,SW,235,5.0,11.0,255,0.00,,,0.00,0,Wunderground v.1.15,2013-05-10 16:41:00,
2013-05-10 12:51:00,76.6,-99.9,19.98,SSW,203,4.0,11.0,255,0.00,,,0.00,0,Wunderground v.1.15,2013-05-10 16:51:00,
2013-05-10 13:00:00,76.5,-99.9,19.98,SW,235,10.0,15.0,255,0.00,,,0.00,0,Wunderground v.1.15,2013-05-10 17:00:00,
2013-05-10 13:06:00,76.7,-99.9,19.99,SW,218,5.0,15.0,255,0.00,,,0.00,0,Wunderground v.1.15,2013-05-10 17:06:00,
2013-05-10 13:15:00,76.5,-99.9,19.98,SSW,213,9.0,15.0,255,0.00,,,0.00,0,Wunderground v.1.15,2013-05-10 17:15:00,
2013-05-10 13:26:00,77.1,-99.9,19.99,SSW,206,11.0,15.0,255,0.00,,,0.00,0,Wunderground v.1.15,2013-05-10 17:26:00,
2013-05-10 13:35:00,77.8,-99.9,19.98,SW,229,8.0,15.0,255,0.00,,,0.00,0,Wunderground v.1.15,2013-05-10 17:35:00,
2013-05-10 13:45:00,79.0,-99.9,19.99,SW,230,12.0,15.0,255,0.00,,,0.00,0,Wunderground v.1.15,2013-05-10 17:45:00,
2013-05-10 13:50:00,79.8,-99.9,19.98,SW,236,6.0,15.0,255,0.00,,,0.00,0,Wunderground v.1.15,2013-05-10 17:50:00,
2013-05-10 14:00:00,79.5,-99.9,19.99,SW,236,6.0,20.0,255,0.00,,,0.00,0,Wunderground v.1.15,2013-05-10 18:00:00,
2013-05-10 14:05:00,80.5,-99.9,19.99,WSW,249,4.0,20.0,255,0.00,,,0.00,0,Wunderground v.1.15,2013-05-10 18:05:00,
2013-05-10 14:15:00,80.0,-99.9,19.98,WSW,257,7.0,20.0,255,0.00,,,0.00,0,Wunderground v.1.15,2013-05-10 18:15:00,
2013-05-10 14:25:00,80.0,-99.9,19.99,SW,227,10.0,20.0,255,0.00,,,0.00,0,Wunderground v.1.15,2013-05-10 18:25:00,
2013-05-10 14:35:00,80.4,-99.9,19.99,WSW,239,6.0,20.0,255,0.00,,,0.00,0,Wunderground v.1.15,2013-05-10 18:35:00,
2013-05-10 14:45:00,80.7,-99.9,19.99,SW,221,5.0,20.0,255,0.00,,,0.00,0,Wunderground v.1.15,2013-05-10 18:45:00,
2013-05-10 15:00:00,80.6,-99.9,19.98,SSW,209,4.0,14.0,255,0.00,,,0.00,0,Wunderground v.1.15,2013-05-10 19:00:00,
2013-05-10 15:10:00,80.9,-99.9,19.99,West,260,7.0,14.0,255,0.00,,,0.00,0,Wunderground v.1.15,2013-05-10 19:10:00,
2013-05-10 15:21:00,80.4,-99.9,19.99,SW,229,8.0,14.0,255,0.00,,,0.00,0,Wunderground v.1.15,2013-05-10 19:21:00,
2013-05-10 15:31:00,81.2,-99.9,19.98,SSW,203,6.0,14.0,255,0.00,,,0.00,0,Wunderground v.1.15,2013-05-10 19:31:00,
2013-05-10 15:41:00,81.5,-99.9,19.99,WSW,254,8.0,14.0,255,0.00,,,0.00,0,Wunderground v.1.15,2013-05-10 19:41:00,
2013-05-10 15:51:00,81.1,-99.9,19.98,SW,214,4.0,14.0,255,0.00,,,0.00,0,Wunderground v.1.15,2013-05-10 19:51:00,
2013-05-10 16:01:00,81.1,-99.9,19.98,SW,230,3.0,17.0,255,0.00,,,0.00,0,Wunderground v.1.15,2013-05-10 20:01:00,
2013-05-10 16:11:00,80.7,-99.9,19.98,SW,223,5.0,17.0,255,0.00,,,0.00,0,Wunderground v.1.15,2013-05-10 20:11:00,
2013-05-10 16:20:00,81.3,-99.9,19.98,SW,220,11.0,17.0,255,0.00,,,0.00,0,Wunderground v.1.15,2013-05-10 20:20:00,
2013-05-10 16:25:00,80.4,-99.9,19.99,WSW,256,7.0,17.0,255,0.00,,,0.00,0,Wunderground v.1.15,2013-05-10 20:25:00,
2013-05-10 16:35:00,80.4,-99.9,19.99,West,264,3.0,17.0,255,0.00,,,0.00,0,Wunderground v.1.15,2013-05-10 20:35:00,
2013-05-10 16:45:00,79.8,-99.9,19.98,WSW,243,6.0,17.0,255,0.00,,,0.00,0,Wunderground v.1.15,2013-05-10 20:45:00,
2013-05-10 16:50:00,79.9,-99.9,19.99,WSW,246,8.0,17.0,255,0.00,,,0.00,0,Wunderground v.1.15,2013-05-10 20:50:00,
2013-05-10 17:00:00,80.2,-99.9,19.99,WSW,247,8.0,17.0,255,0.00,,,0.00,0,Wunderground v.1.15,2013-05-10 21:00:00,
2013-05-10 17:10:00,80.3,-99.9,19.98,SW,225,6.0,17.0,255,0.00,,,0.00,0,Wunderground v.1.15,2013-05-10 21:10:00,
2013-05-10 17:20:00,79.0,-99.9,19.99,WSW,244,4.0,17.0,255,0.00,,,0.00,0,Wunderground v.1.15,2013-05-10 21:20:00,
2013-05-10 17:25:00,78.6,-99.9,19.99,WSW,249,7.0,17.0,255,0.00,,,0.00,0,Wunderground v.1.15,2013-05-10 21:25:00,
2013-05-10 17:35:00,78.7,-99.9,19.99,SSW,213,4.0,17.0,255,0.00,,,0.00,0,Wunderground v.1.15,2013-05-10 21:35:00,
2013-05-10 17:45:00,78.5,-99.9,19.99,WSW,255,7.0,17.0,255,0.00,,,0.00,0,Wunderground v.1.15,2013-05-10 21:45:00,
2013-05-10 18:00:00,78.2,-99.9,19.99,WSW,254,3.0,17.0,255,0.00,,,0.00,0,Wunderground v.1.15,2013-05-10 22:00:00,
2013-05-10 18:05:00,77.8,-99.9,19.99,SSW,209,4.0,17.0,255,0.00,,,0.00,0,Wunderground v.1.15,2013-05-10 22:05:00,
2013-05-10 18:10:00,77.3,-99.9,19.98,West,267,3.0,17.0,255,0.00,,,0.00,0,Wunderground v.1.15,2013-05-10 22:10:00,
2013-05-10 18:21:00,76.9,-99.9,19.99,SW,234,3.0,17.0,255,0.00,,,0.00,0,Wunderground v.1.15,2013-05-10 22:21:00,
2013-05-10 18:26:00,76.5,-99.9,19.98,West,261,3.0,17.0,255,0.00,,,0.00,0,Wunderground v.1.15,2013-05-10 22:26:00,
2013-05-10 18:36:00,76.4,-99.9,19.99,WSW,249,3.0,17.0,255,0.00,,,0.00,0,Wunderground v.1.15,2013-05-10 22:36:00,
2013-05-10 18:46:00,76.0,-99.9,19.98,WSW,257,3.0,17.0,255,0.00,,,0.00,0,Wunderground v.1.15,2013-05-10 22:46:00,
2013-05-10 19:01:00,75.1,-99.9,19.98,WSW,243,4.0,9.0,255,0.00,,,0.00,0,Wunderground v.1.15,2013-05-10 23:01:00,
2013-05-10 19:10:00,74.6,-99.9,19.98,SW,224,3.0,9.0,255,0.00,,,0.00,0,Wunderground v.1.15,2013-05-10 23:10:00,
2013-05-10 19:20:00,74.3,-99.9,19.99,WSW,254,3.0,9.0,255,0.00,,,0.00,0,Wunderground v.1.15,2013-05-10 23:20:00,
2013-05-10 19:30:00,74.1,-99.9,19.99,WSW,245,1.0,9.0,255,0.00,,,0.00,0,Wunderground v.1.15,2013-05-10 23:30:00,
2013-05-10 19:40:00,73.8,-99.9,19.99,WSW,247,1.0,9.0,255,0.00,,,0.00,0,Wunderground v.1.15,2013-05-10 23:40:00,
2013-05-10 19:50:00,73.6,-99.9,19.98,WSW,246,4.0,9.0,255,0.00,,,0.00,0,Wunderground v.1.15,2013-05-10 23:50:00,
2013-05-10 20:00:00,73.2,-99.9,19.99,WSW,245,2.0,10.0,255,0.00,,,0.00,0,Wunderground v.1.15,2013-05-11 00:00:00,
2013-05-10 20:10:00,72.8,-99.9,19.98,WSW,245,2.0,10.0,255,0.00,,,0.00,0,Wunderground v.1.15,2013-05-11 00:10:00,
2013-05-10 20:15:00,72.7,-99.9,19.99,WSW,245,2.0,10.0,255,0.00,,,0.00,0,Wunderground v.1.15,2013-05-11 00:15:00,
2013-05-10 20:25:00,72.4,-99.9,19.99,WSW,244,4.0,10.0,255,0.00,,,0.00,0,Wunderground v.1.15,2013-05-11 00:25:00,
2013-05-10 20:35:00,72.3,-99.9,19.99,WSW,244,2.0,10.0,255,0.00,,,0.00,0,Wunderground v.1.15,2013-05-11 00:35:00,
2013-05-10 20:45:00,72.1,-99.9,19.99,WSW,244,1.0,10.0,255,0.00,,,0.00,0,Wunderground v.1.15,2013-05-11 00:45:00,
2013-05-10 21:00:00,71.8,-99.9,19.99,WSW,244,5.0,6.0,255,0.00,,,0.00,0,Wunderground v.1.15,2013-05-11 01:00:00,
2013-05-10 21:10:00,71.6,-99.9,19.98,SSW,211,3.0,6.0,255,0.00,,,0.00,0,Wunderground v.1.15,2013-05-11 01:10:00,
2013-05-10 21:16:00,71.6,-99.9,19.99,SSW,206,1.0,6.0,255,0.00,,,0.00,0,Wunderground v.1.15,2013-05-11 01:16:00,
2013-05-10 21:26:00,71.5,-99.9,19.98,SSW,206,5.0,6.0,255,0.00,,,0.00,0,Wunderground v.1.15,2013-05-11 01:26:00,
2013-05-10 21:36:00,71.4,-99.9,19.99,SSW,206,3.0,6.0,255,0.00,,,0.00,0,Wunderground v.1.15,2013-05-11 01:36:00,
2013-05-10 21:41:00,71.4,-99.9,19.99,SSW,208,3.0,6.0,255,0.00,,,0.00,0,Wunderground v.1.15,2013-05-11 01:41:00,
2013-05-10 21:51:00,71.4,-99.9,19.98,SSW,209,2.0,6.0,255,0.00,,,0.00,0,Wunderground v.1.15,2013-05-11 01:51:00,
2013-05-10 22:01:00,71.4,-99.9,19.98,SSW,209,1.0,6.0,255,0.00,,,0.00,0,Wunderground v.1.15,2013-05-11 02:01:00,
2013-05-10 22:10:00,71.1,-99.9,19.99,SSW,210,3.0,6.0,255,0.00,,,0.00,0,Wunderground v.1.15,2013-05-11 02:10:00,
2013-05-10 22:15:00,71.0,-99.9,19.99,SSW,209,5.0,6.0,255,0.00,,,0.00,0,Wunderground v.1.15,2013-05-11 02:15:00,
2013-05-10 22:25:00,71.0,-99.9,19.98,SSW,209,2.0,6.0,255,0.00,,,0.00,0,Wunderground v.1.15,2013-05-11 02:25:00,
2013-05-10 22:35:00,71.1,-99.9,19.99,SSW,202,7.0,7.0,255,0.00,,,0.00,0,Wunderground v.1.15,2013-05-11 02:35:00,
2013-05-10 22:45:00,71.3,-99.9,19.99,WSW,242,4.0,6.0,255,0.00,,,0.00,0,Wunderground v.1.15,2013-05-11 02:45:00,
2013-05-10 23:00:00,71.8,-99.9,19.99,SSW,200,5.0,11.0,255,0.00,,,0.00,0,Wunderground v.1.15,2013-05-11 03:00:00,
2013-05-10 23:10:00,72.0,-99.9,19.99,SSW,202,2.0,11.0,255,0.00,,,0.00,0,Wunderground v.1.15,2013-05-11 03:10:00,
2013-05-10 23:20:00,72.1,-99.9,19.99,SW,214,4.0,11.0,255,0.00,,,0.00,0,Wunderground v.1.15,2013-05-11 03:20:00,
2013-05-10 23:30:00,72.1,-99.9,19.99,West,260,1.0,11.0,255,0.00,,,0.00,0,Wunderground v.1.15,2013-05-11 03:30:00,
2013-05-10 23:40:00,72.2,-99.9,19.99,WSW,258,3.0,11.0,255,0.00,,,0.00,0,Wunderground v.1.15,2013-05-11 03:40:00,
2013-05-10 23:50:00,72.1,-99.9,19.99,SW,222,7.0,11.0,255,0.00,,,0.00,0,Wunderground v.1.15,2013-05-11 03:50:00,